Regional Weather Roundup
Issued by NWS

Home | Current Version | Previous Version | Text Only | Print | Product List | Glossary On
Versions: 1 2 3 4 5 6 7 8 9 10 11 12 13 14 15 16 17 18 19 20 21 22 23 24 25 26 27 28 29 30 31 32 33 34 35 36 37 38 39 40 41 42 43 44 45 46 47 48 49 50
000
ASUS43 KTOP 261008
RWRKS

WEATHER ROUNDUP FOR KANSAS
NATIONAL WEATHER SERVICE GOODLAND KS
400 AM CST WED NOV 26 2014

NOTE:  "FAIR" INDICATES FEW OR NO CLOUDS BELOW 12,000 FEET WITH NO
SIGNIFICANT WEATHER AND/OR OBSTRUCTIONS TO VISIBILITY.

KSZ001>006-013>018-027>032-041>047-261100-
NORTHWEST KANSAS

CITY           SKY/WX    TMP DP  RH WIND       PRES   REMARKS
GOODLAND       LGT SNOW  33  31  92 NW21      30.12R FOG     WCI  21
HAYS           CLOUDY    41  27  56 NW17G23   30.04R
HILL CITY      CLOUDY    41  30  65 NW13G23   30.06R
RUSSELL        CLOUDY    42  27  55 NW10      30.01R
$$

KSZ061>065-074>080-084>089-261100-
SOUTHWEST KANSAS

CITY           SKY/WX    TMP DP  RH WIND       PRES   REMARKS
DODGE CITY     CLOUDY    39  32  76 NW14G22   30.06R WCI  31
ELKHART          N/A     32  23  69 N12         N/A  WCI  23
GARDEN CITY    CLOUDY    37  31  78 N20G25    30.09R WCI  27
GREAT BEND     CLOUDY    45  28  53 NW13      30.03S
LIBERAL        CLEAR     36  28  75 NW14      30.12R WCI  27
PRATT          CLOUDY    43  30  61 NW10      30.04R
$$

KSZ066>073-081>083-090>101-261100-
SOUTHEAST KANSAS

CITY           SKY/WX    TMP DP  RH WIND       PRES   REMARKS
CHANUTE        CLOUDY    40  25  55 SW7       29.96S
COFFEYVILLE    CLOUDY    39  26  59 SW6       29.96F
HUTCHINSON     CLOUDY    46  27  47 N17G24    30.00R
MEDICINE LODGE   N/A     47  31  53 N17       30.01R
NEWTON         CLOUDY    39  25  56 NW7       29.99S
PARSONS        CLOUDY    39  26  59 SW6       29.97S
WICHITA INTL   CLOUDY    42  28  57 NW10      29.99R
WICHITA JABRA  CLOUDY    42  28  57 NW10      29.98R
WICHITA MCCONL CLOUDY    41  29  62 W7        29.99R
WINFIELD       CLOUDY    39  29  67 SW5       29.99R
$$

KSZ007>012-019>026-033>040-048>060-102>105-261100-
NORTHEAST KANSAS

CITY           SKY/WX    TMP DP  RH WIND       PRES   REMARKS
CONCORDIA      MOCLDY    41  30  65 W12       29.97R
EMPORIA        LGT RAIN  40  29  64 W7        29.95S
LAWRENCE       LGT RAIN  39  33  79 W12       29.95S WCI  32
MANHATTAN      CLOUDY    43  31  62 W7        29.95S
MARYSVILLE     PTCLDY    37  32  81 NW12      29.93R WCI  30
OLATHE IND     LGT RAIN  36  32  85 SW13      29.96R WCI  27
OLATHE EXE     LGT SNOW  35  33  92 W12G23    29.95R FOG     WCI  27
SALINA         CLOUDY    44  30  57 NW8       30.00R
TOPEKA BILLARD LGT RAIN  42  36  79 SW5       29.94F
TOPEKA FORBES  LGT RAIN  42  35  76 W8        29.93F
$$



USA.gov is the U.S. government's official web portal to all federal, state and local government web resources and services.